Flag for Saudi Arabia Weather past 2 weeks in Makkah, Saudi Arabia

Now
88 °F

Sunny.


Feels Like: 91 °F
Forecast: 70 / 93 °F
Wind: 2 mph from Southwest

Location: Mecca Airport

Current Time: Jan 28, 2015 at 12:34:47 PM

Latest Report: Jan 28, 2015 at 12:00 PM


Visibility: 10 mi

Pressure: 29.89 "Hg

Humidity: 52%

Dew point: 68 °F

Location of MakkahLocation

Historic Weather in Makkah — Graph

°F

Makkah temperature yesterday

Maximum temperature yesterday: 93 °F (at 3:00 PM)
Minimum temperature yesterday: 73 °F (at 4:00 AM)
Average temperature yesterday: 80 °F

Past Weeks' High & Low Weather Summary

 TemperatureHumidityPressure
High95 °F (Jan 21, 3:00 PM)100% (Jan 15, 6:00 PM)30.09 "Hg (Jan 15, 6:00 PM)
Low63 °F (Jan 21, 7:00 AM)19% (Jan 20, 2:00 PM)29.86 "Hg (Jan 24, 3:00 PM)
Average77 °F57%29.99 "Hg
* Reported Jan 13 11:00 AM — Jan 28 11:00 AM, Makkah, Weather by CustomWeather, © 2014

Note: Actual official high and low records may vary slightly from our data, if they occured in-between our weather recording intervals... More about our weather records

Advertising

Makkah weather history for previous 24 hours

 ConditionsComfort  
Time TempWeatherWind HumidityBarometerVisibility
11:00 AM
Jan 28
84 °FPassing clouds.No wind58%29.92 "HgN/A
10:00 AM81 °FPassing clouds.No wind62%29.92 "HgN/A
9:00 AM75 °FSunny.No wind83%29.92 "Hg10 mi
8:00 AM73 °FSunny.No wind94%29.89 "Hg10 mi
7:00 AM73 °FSunny.No wind89%29.89 "Hg10 mi
6:00 AM75 °FClear.No wind83%29.89 "Hg10 mi
5:00 AM75 °FClear.No wind89%29.89 "Hg10 mi
4:00 AM75 °FClear.No wind83%29.89 "Hg10 mi
3:00 AM75 °FClear.No wind83%29.89 "Hg10 mi
2:00 AM75 °FClear.No wind83%29.89 "Hg10 mi
1:00 AM75 °FClear.No wind83%29.92 "Hg10 mi
12:00 AM77 °FClear.No wind79%29.92 "Hg10 mi
11:00 PM
Jan 27
77 °FClear.2 mph79%29.95 "Hg10 mi
10:00 PM77 °FClear.2 mph79%29.95 "Hg10 mi
9:00 PM79 °FClear.2 mph74%29.92 "Hg10 mi
8:00 PM81 °FClear.2 mph70%29.92 "Hg10 mi
7:00 PM82 °FClear.7 mph66%29.92 "Hg10 mi
6:00 PM86 °FSunny.5 mph55%29.89 "Hg10 mi
4:00 PM93 °FSunny.2 mph39%29.86 "Hg10 mi
3:00 PM93 °FSunny.2 mph39%29.89 "Hg10 mi
2:00 PM91 °FSunny.No wind44%29.89 "Hg10 mi
1:00 PM91 °FSunny.No wind41%29.92 "Hg10 mi
12:00 PM90 °FSunny.No wind46%29.95 "Hg10 mi
Weather by CustomWeather, © 2014

See weather overviewHow to use our weather pages